Location: Newark
(37.3396°N, 6.0260°W)
Time: 09:59:30
(UTC+00:00)

Hubble Space Telescope - Visible Passes

Search period start: 23 October 2019 00:00
Search period end: 02 November 2019 00:00
Orbit: 536 x 540 km, 28.5° (Epoch: 22 October)

Date Brightness Start Highest point End Pass type
(mag) Time Alt. Az. Time Alt. Az. Time Alt. Az.
30 Oct 3.4 04:32:22 12° SSE 04:32:22 12° SSE 04:33:54 10° SE visible
30 Oct 2.8 06:09:41 10° SW 06:12:53 22° S 06:16:05 10° ESE visible
31 Oct 3.4 04:22:36 13° SSE 04:22:36 13° SSE 04:23:49 10° SE visible
31 Oct 2.7 05:58:56 10° SW 06:02:13 23° S 06:05:30 10° ESE visible
01 Nov 3.6 04:12:47 13° SE 04:12:47 13° SE 04:13:32 10° SE visible
01 Nov 2.6 05:48:15 10° SW 05:51:34 23° S 05:54:52 10° SE visible
